Regional Weather Roundup
Issued by NWS Sioux Falls, SD

Home | Current Version | Previous Version | Graphics & Text | Print | Product List | Glossary Off
Versions: 1 2 3 4 5 6 7 8 9 10 11 12 13 14 15 16 17 18 19 20 21 22 23 24 25 26 27 28 29 30 31 32 33 34 35 36 37 38 39 40 41 42 43 44 45 46 47 48 49 50

000
ASUS43 KFSD 181510
RWRFSD

WEATHER ROUNDUP FOR SE SOUTH DAKOTA/SW MINNESOTA/NW IOWA
NATIONAL WEATHER SERVICE SIOUX FALLS SD
1000 AM CDT THU SEP 18 2014

NOTE: "FAIR" INDICATES FEW OR NO CLOUDS BELOW 12,000 FEET WITH NO
SIGNIFICANT WEATHER AND OR OBSTRUCTIONS TO VISIBILITY.


SDZ038>040-050-052>070-181600-
SOUTHEAST SOUTH DAKOTA

CITY           SKY/WX    TMP DP  RH WIND       PRES   REMARKS
CHAMBERLAIN    LGT RAIN  59  58  96 SE14      29.91F
HURON          PTSUNNY   62  56  80 S9        29.96S THUNDER
MADISON        FAIR      63  63 100 S10       30.02R
MITCHELL       PTSUNNY   63  59  87 SE9       29.98S
SIOUX FALLS    MOSUNNY   67  59  75 S13       30.02R
WINNER         FAIR      68  61  78 S12       29.93R
YANKTON        MOSUNNY   64  63  94 SE10      30.00S
$$

MNZ071-072-080-081-089-090-097-098-181600-
SOUTHWEST MINNESOTA

CITY           SKY/WX    TMP DP  RH WIND       PRES   REMARKS
FAIRMONT       PTSUNNY   61  54  77 S9        30.08R
JACKSON        SUNNY     63  55  77 S8        30.07S
LUVERNE        PTSUNNY   63  55  77 S9        30.05R
MARSHALL       MOSUNNY   59  52  77 SE10      30.03S
MONTEVIDEO     CLOUDY    54  54 100 S8        30.05F FOG
PIPESTONE      MOSUNNY   64  57  77 S9        30.03S
REDWOOD FALLS  MOSUNNY   57  53  86 SE9       30.06S
TRACY          SUNNY     64  59  83 CALM      30.05R
WINDOM         SUNNY     64  55  72 S7        30.06R
WORTHINGTON    SUNNY     64  55  72 S10       30.06S
$$

IAZ001>003-012>014-020>022-031-032-NEZ013-014-SDZ071-181600-
NORTHWEST IOWA

CITY           SKY/WX    TMP DP  RH WIND       PRES   REMARKS
CHEROKEE       SUNNY     64  61  88 S9        30.06S
DENISON        PTSUNNY   61  59  94 S9        30.05R
ESTHERVILLE    PTSUNNY   59  58  96 S12       30.07S FOG
LE MARS        MOSUNNY   64  59  82 SE9       30.04S
ORANGE CITY    SUNNY     66  57  72 S8        30.05R
SHELDON        SUNNY     64  59  82 S10       30.05R
SIOUX CITY     MOSUNNY   65  60  84 SE9       30.03S
SPENCER        SUNNY     64  58  80 SE9       30.07R
STORM LAKE     MOSUNNY   59  59 100 SE7G13    30.07R FOG
$$

ABBREVIATIONS USED IN REMARKS
   TC - TEMPERATURE IN CELSIUS
  WCI - WIND CHILL INDEX
   HX - HEAT INDEX
  VSB - VISIBILITY




USA.gov is the U.S. government's official web portal to all federal, state and local government web resources and services.